User: anonymous   Login
Location: Unspecified
(0.0000°N, 0.0000°E)
Time: 13:13:38
(UTC+00:00)
Language:

CORVUS BC2 - Orbit

View from above orbital plane
View from above orbital plane
View from above satellite
View from above satellite

Ground track
Ground track

The orbit data is extracted from the following two-line orbital elements,

1 42846U 17042X   18288.19959972  .00000378  00000-0  42666-4 0  9992
2 42846  97.5845 186.6601 0010281 148.7633 211.4199 14.91869109 68263
Epoch (UTC): 15 October 2018 04:47:25
Eccentricity: 0.0010281
inclination: 97.5845°
perigee height: 585 km
apogee height: 599 km
right ascension of ascending node: 186.6601°
argument of perigee: 148.7633°
revolutions per day: 14.91869109
mean anomaly at epoch: 211.4199°
orbit number at epoch: 6826

The dashed part of the orbit path shows where the satellite is in the earth's shadow,  

DLR